Time,TemperatureF,DewpointF,PressureIn,WindDirection,WindDirectionDegrees,WindSpeedMPH,WindSpeedGustMPH,Humidity,HourlyPrecipIn,Conditions,Clouds,dailyrainin,SoftwareType,DateUTC
2013-06-13 00:02:00,55.0,-99.9,-100.00,East,94,5.0,8.0,-999,-99.99,,,-99.99,,2013-06-13 06:02:00,
2013-06-13 00:12:00,55.0,-99.9,-100.00,East,94,5.0,8.0,-999,-99.99,,,-99.99,,2013-06-13 06:12:00,
2013-06-13 01:02:00,54.0,-99.9,-100.00,NNE,25,10.0,11.0,-999,-99.99,,,-99.99,,2013-06-13 07:02:00,
2013-06-13 01:12:00,54.0,-99.9,-100.00,NNE,25,10.0,11.0,-999,-99.99,,,-99.99,,2013-06-13 07:12:00,
2013-06-13 02:02:00,52.0,-99.9,-100.00,NNE,24,6.0,11.0,-999,-99.99,,,-99.99,,2013-06-13 08:02:00,
2013-06-13 02:12:00,52.0,-99.9,-100.00,NNE,24,6.0,11.0,-999,-99.99,,,-99.99,,2013-06-13 08:12:00,
2013-06-13 03:02:00,50.0,-99.9,-100.00,NNE,21,5.0,7.0,-999,-99.99,,,-99.99,,2013-06-13 09:02:00,
2013-06-13 03:12:00,50.0,-99.9,-100.00,NNE,21,5.0,7.0,-999,-99.99,,,-99.99,,2013-06-13 09:12:00,
2013-06-13 04:02:00,50.0,-99.9,-100.00,NNE,26,4.0,4.0,-999,-99.99,,,-99.99,,2013-06-13 10:02:00,
2013-06-13 04:12:00,50.0,-99.9,-100.00,NNE,26,4.0,4.0,-999,-99.99,,,-99.99,,2013-06-13 10:12:00,
2013-06-13 05:02:00,48.0,-99.9,-100.00,NNE,18,4.0,7.0,-999,-99.99,,,-99.99,,2013-06-13 11:02:00,
2013-06-13 05:12:00,48.0,-99.9,-100.00,NNE,18,4.0,7.0,-999,-99.99,,,-99.99,,2013-06-13 11:12:00,
2013-06-13 06:02:00,46.0,-99.9,-100.00,NE,35,5.0,8.0,-999,-99.99,,,-99.99,,2013-06-13 12:02:00,
2013-06-13 06:12:00,46.0,-99.9,-100.00,NE,35,5.0,8.0,-999,-99.99,,,-99.99,,2013-06-13 12:12:00,
2013-06-13 06:52:00,46.0,-99.9,-100.00,NE,41,6.0,8.0,-999,-99.99,,,-99.99,,2013-06-13 12:52:00,
2013-06-13 07:02:00,46.0,-99.9,-100.00,NE,41,6.0,8.0,-999,-99.99,,,-99.99,,2013-06-13 13:02:00,
2013-06-13 07:12:00,46.0,-99.9,-100.00,NE,41,6.0,8.0,-999,-99.99,,,-99.99,,2013-06-13 13:12:00,
2013-06-13 07:53:00,48.0,-99.9,-100.00,ENE,57,1.0,1.0,-999,-99.99,,,-99.99,,2013-06-13 13:53:00,
2013-06-13 08:02:00,48.0,-99.9,-100.00,ENE,57,1.0,1.0,-999,-99.99,,,-99.99,,2013-06-13 14:02:00,
2013-06-13 08:12:00,48.0,-99.9,-100.00,ENE,57,1.0,1.0,-999,-99.99,,,-99.99,,2013-06-13 14:12:00,
2013-06-13 08:53:00,48.0,-99.9,-100.00,NNE,25,2.0,5.0,-999,-99.99,,,-99.99,,2013-06-13 14:53:00,
2013-06-13 09:02:00,48.0,-99.9,-100.00,NNE,25,2.0,5.0,-999,-99.99,,,-99.99,,2013-06-13 15:02:00,
2013-06-13 10:10:00,61.0,-99.9,-100.00,NNE,29,1.0,2.0,-999,-99.99,,,-99.99,,2013-06-13 16:10:00,
2013-06-13 10:54:00,61.0,-99.9,-100.00,NNE,29,1.0,2.0,-999,-99.99,,,-99.99,,2013-06-13 16:54:00,
2013-06-13 11:02:00,61.0,-99.9,-100.00,NNE,29,1.0,2.0,-999,-99.99,,,-99.99,,2013-06-13 17:02:00,
2013-06-13 11:10:00,70.0,-99.9,-100.00,East,80,1.0,4.0,-999,-99.99,,,-99.99,,2013-06-13 17:10:00,
2013-06-13 11:53:00,70.0,-99.9,-100.00,East,80,1.0,4.0,-999,-99.99,,,-99.99,,2013-06-13 17:53:00,
2013-06-13 12:02:00,70.0,-99.9,-100.00,East,80,1.0,4.0,-999,-99.99,,,-99.99,,2013-06-13 18:02:00,
2013-06-13 12:10:00,70.0,-99.9,-100.00,NNE,31,2.0,4.0,-999,-99.99,,,-99.99,,2013-06-13 18:10:00,
2013-06-13 12:52:00,70.0,-99.9,-100.00,NNE,31,2.0,4.0,-999,-99.99,,,-99.99,,2013-06-13 18:52:00,
2013-06-13 13:02:00,70.0,-99.9,-100.00,NNE,31,2.0,4.0,-999,-99.99,,,-99.99,,2013-06-13 19:02:00,
2013-06-13 13:10:00,72.0,-99.9,-100.00,East,86,2.0,4.0,-999,-99.99,,,-99.99,,2013-06-13 19:10:00,
2013-06-13 13:53:00,72.0,-99.9,-100.00,East,86,2.0,4.0,-999,-99.99,,,-99.99,,2013-06-13 19:53:00,
2013-06-13 14:02:00,72.0,-99.9,-100.00,East,86,2.0,4.0,-999,-99.99,,,-99.99,,2013-06-13 20:02:00,
2013-06-13 14:10:00,72.0,-99.9,-100.00,North,4,5.0,5.0,-999,-99.99,,,-99.99,,2013-06-13 20:10:00,
2013-06-13 14:53:00,72.0,-99.9,-100.00,North,4,5.0,5.0,-999,-99.99,,,-99.99,,2013-06-13 20:53:00,
2013-06-13 15:02:00,72.0,-99.9,-100.00,North,4,5.0,5.0,-999,-99.99,,,-99.99,,2013-06-13 21:02:00,
2013-06-13 15:10:00,72.0,-99.9,-100.00,East,91,2.0,6.0,-999,-99.99,,,-99.99,,2013-06-13 21:10:00,
2013-06-13 15:52:00,72.0,-99.9,-100.00,East,91,2.0,6.0,-999,-99.99,,,-99.99,,2013-06-13 21:52:00,
2013-06-13 16:02:00,72.0,-99.9,-100.00,East,91,2.0,6.0,-999,-99.99,,,-99.99,,2013-06-13 22:02:00,
2013-06-13 16:10:00,68.0,-99.9,-100.00,East,88,6.0,8.0,-999,-99.99,,,-99.99,,2013-06-13 22:10:00,
2013-06-13 16:53:00,68.0,-99.9,-100.00,East,88,6.0,8.0,-999,-99.99,,,-99.99,,2013-06-13 22:53:00,
2013-06-13 17:02:00,68.0,-99.9,-100.00,East,88,6.0,8.0,-999,-99.99,,,-99.99,,2013-06-13 23:02:00,
2013-06-13 17:10:00,68.0,-99.9,-100.00,East,98,5.0,6.0,-999,-99.99,,,-99.99,,2013-06-13 23:10:00,
2013-06-13 17:53:00,68.0,-99.9,-100.00,East,98,5.0,6.0,-999,-99.99,,,-99.99,,2013-06-13 23:53:00,
2013-06-13 18:02:00,68.0,-99.9,-100.00,East,98,5.0,6.0,-999,-99.99,,,-99.99,,2013-06-14 00:02:00,
2013-06-13 18:10:00,66.0,-99.9,-100.00,NNE,13,4.0,8.0,-999,-99.99,,,-99.99,,2013-06-14 00:10:00,
2013-06-13 18:53:00,66.0,-99.9,-100.00,NNE,13,4.0,8.0,-999,-99.99,,,-99.99,,2013-06-14 00:53:00,
2013-06-13 19:02:00,66.0,-99.9,-100.00,NNE,13,4.0,8.0,-999,-99.99,,,-99.99,,2013-06-14 01:02:00,
2013-06-13 19:10:00,68.0,-99.9,-100.00,NE,43,6.0,7.0,-999,-99.99,,,-99.99,,2013-06-14 01:10:00,
2013-06-13 19:53:00,68.0,-99.9,-100.00,NE,43,6.0,7.0,-999,-99.99,,,-99.99,,2013-06-14 01:53:00,
2013-06-13 20:02:00,68.0,-99.9,-100.00,NE,43,6.0,7.0,-999,-99.99,,,-99.99,,2013-06-14 02:02:00,
2013-06-13 20:10:00,66.0,-99.9,-100.00,NNE,32,7.0,8.0,-999,-99.99,,,-99.99,,2013-06-14 02:10:00,
2013-06-13 20:53:00,66.0,-99.9,-100.00,NNE,32,7.0,8.0,-999,-99.99,,,-99.99,,2013-06-14 02:53:00,
2013-06-13 21:02:00,66.0,-99.9,-100.00,NNE,32,7.0,8.0,-999,-99.99,,,-99.99,,2013-06-14 03:02:00,
2013-06-13 21:10:00,63.0,-99.9,-100.00,NNE,22,4.0,5.0,-999,-99.99,,,-99.99,,2013-06-14 03:10:00,
2013-06-13 21:53:00,63.0,-99.9,-100.00,NNE,22,4.0,5.0,-999,-99.99,,,-99.99,,2013-06-14 03:53:00,
2013-06-13 22:02:00,63.0,-99.9,-100.00,NNE,22,4.0,5.0,-999,-99.99,,,-99.99,,2013-06-14 04:02:00,
2013-06-13 22:10:00,61.0,-99.9,-100.00,NE,45,5.0,7.0,-999,-99.99,,,-99.99,,2013-06-14 04:10:00,
2013-06-13 22:53:00,61.0,-99.9,-100.00,NE,45,5.0,7.0,-999,-99.99,,,-99.99,,2013-06-14 04:53:00,
2013-06-13 23:02:00,61.0,-99.9,-100.00,NE,45,5.0,7.0,-999,-99.99,,,-99.99,,2013-06-14 05:02:00,
2013-06-13 23:10:00,61.0,-99.9,-100.00,NE,34,10.0,13.0,-999,-99.99,,,-99.99,,2013-06-14 05:10:00,
2013-06-13 23:52:00,61.0,-99.9,-100.00,NE,34,10.0,13.0,-999,-99.99,,,-99.99,,2013-06-14 05:52:00,